| time (UTC) | temp F | wind direction | speed MPH | gust MPH | rain 1hr in | rain 24hr in | rain mn in | humidity % | barometer mb |
| 20260506183054 | 68 | 33 | 2.0 | 7.0 | 0.00 | 0.68 | 0.68 | 93 | 1010.7 |
| 20260506181557 | 68 | 65 | 2.0 | 7.0 | 0.00 | 0.68 | 0.68 | 91 | 1010.7 |
| 20260506180053 | 69 | 51 | 2.0 | 9.0 | 0.00 | 0.68 | 0.68 | 91 | 1010.7 |
| 20260506174555 | 69 | 37 | 3.0 | 8.0 | 0.00 | 0.68 | 0.68 | 91 | 1010.7 |
| 20260506173123 | 69 | 45 | 2.0 | 10.0 | 0.00 | 0.68 | 0.68 | 93 | 1010.8 |
| 20260506171554 | 68 | 52 | 4.0 | 10.0 | 0.00 | 0.68 | 0.68 | 93 | 1010.7 |
| 20260506170047 | 67 | 75 | 0.0 | 5.0 | 0.00 | 0.68 | 0.68 | 96 | 1010.3 |
| 20260506164554 | 66 | 74 | 2.0 | 8.0 | 0.00 | 0.68 | 0.68 | 96 | 1010.4 |
| 20260506163049 | 65 | 51 | 1.0 | 8.0 | 0.00 | 0.68 | 0.68 | 97 | 1010.4 |
| 20260506161549 | 65 | 51 | 2.0 | 7.0 | 0.00 | 0.68 | 0.68 | 97 | 1010.3 |
| 20260506160046 | 64 | 41 | 0.0 | 9.0 | 0.00 | 0.68 | 0.68 | 97 | 1010.3 |
| 20260506154549 | 64 | 58 | 0.0 | 4.0 | 0.00 | 0.68 | 0.68 | 97 | 1010.3 |
| 20260506153047 | 64 | 319 | 0.0 | 0.0 | 0.02 | 0.68 | 0.68 | 98 | 1010.2 |
| 20260506151542 | 63 | 72 | 0.0 | 8.0 | 0.05 | 0.68 | 0.68 | 97 | 1010.7 |
| 20260506150043 | 63 | 43 | 2.0 | 8.0 | 0.06 | 0.68 | 0.68 | 97 | 1010.8 |
| 20260506144543 | 63 | 71 | 0.0 | 4.0 | 0.09 | 0.68 | 0.68 | 98 | 1010.8 |
| 20260506143043 | 63 | 51 | 0.0 | 5.0 | 0.13 | 0.66 | 0.66 | 97 | 1011.0 |
| 20260506141540 | 63 | 39 | 2.0 | 6.0 | 0.15 | 0.63 | 0.63 | 97 | 1011.3 |
| 20260506140038 | 62 | 70 | 1.0 | 4.0 | 0.21 | 0.62 | 0.62 | 97 | 1011.2 |
| 20260506134536 | 62 | 16 | 3.0 | 6.0 | 0.25 | 0.59 | 0.59 | 97 | 1010.4 |
| 20260506133035 | 62 | 77 | 2.0 | 8.0 | 0.27 | 0.53 | 0.53 | 97 | 1010.6 |
| 20260506131545 | 62 | 72 | 3.0 | 9.0 | 0.27 | 0.47 | 0.47 | 96 | 1010.8 |
| 20260506130042 | 62 | 91 | 0.0 | 6.0 | 0.31 | 0.41 | 0.41 | 96 | 1010.3 |
| 20260506124532 | 62 | 28 | 1.0 | 5.0 | 0.27 | 0.33 | 0.33 | 96 | 1010.2 |
| 20260506123031 | 62 | 51 | 2.0 | 6.0 | 0.24 | 0.25 | 0.25 | 95 | 1010.4 |
| 20260506121529 | 62 | 25 | 0.0 | 7.0 | 0.19 | 0.19 | 0.19 | 94 | 1010.2 |
| 20260506120028 | 62 | 52 | 0.0 | 3.0 | 0.10 | 0.10 | 0.10 | 92 | 1010.1 |
| 20260506114523 | 62 | 79 | 0.0 | 2.0 | 0.06 | 0.06 | 0.06 | 90 | 1010.0 |
| 20260506113020 | 63 | 68 | 1.0 | 4.0 | 0.01 | 0.01 | 0.01 | 88 | 1009.6 |
| 20260506111521 | 64 | 99 | 0.0 | 0.0 | 0.00 | 0.00 | 0.00 | 85 | 1009.2 |
| 20260506110017 | 64 | 94 | 0.0 | 4.0 | 0.00 | 0.00 | 0.00 | 83 | 1009.0 |
| 20260506104512 | 65 | 52 | 0.0 | 10.0 | 0.00 | 0.00 | 0.00 | 82 | 1008.8 |
| 20260506103011 | 65 | 68 | 2.0 | 10.0 | 0.00 | 0.00 | 0.00 | 80 | 1008.7 |
| 20260506101518 | 66 | 26 | 2.0 | 6.0 | 0.00 | 0.00 | 0.00 | 77 | 1008.3 |
| 20260506100004 | 67 | 65 | 2.0 | 9.0 | 0.00 | 0.00 | 0.00 | 75 | 1008.4 |
| 20260506094505 | 67 | 46 | 4.0 | 9.0 | 0.00 | 0.00 | 0.00 | 74 | 1008.5 |
| 20260506093002 | 67 | 72 | 2.0 | 7.0 | 0.00 | 0.00 | 0.00 | 72 | 1007.8 |
| 20260506091601 | 67 | 30 | 3.0 | 11.0 | 0.00 | 0.00 | 0.00 | 71 | 1008.4 |
| 20260506090059 | 67 | 51 | 2.0 | 7.0 | 0.00 | 0.00 | 0.00 | 71 | 1008.4 |
| 20260506084622 | 67 | 46 | 4.0 | 8.0 | 0.00 | 0.00 | 0.00 | 70 | 1008.2 |
| 20260506083057 | 67 | 30 | 2.0 | 3.0 | 0.00 | 0.00 | 0.00 | 69 | 1008.0 |
| 20260506081600 | 67 | 68 | 0.0 | 3.0 | 0.00 | 0.00 | 0.00 | 68 | 1008.0 |
| 20260506073052 | 67 | 39 | 2.0 | 6.0 | 0.00 | 0.00 | 0.00 | 65 | 1008.0 |
| 20260506071550 | 68 | 63 | 1.0 | 6.0 | 0.00 | 0.00 | 0.00 | 65 | 1007.9 |
| 20260506061543 | 68 | 68 | 0.0 | 4.0 | 0.00 | 0.00 | 0.00 | 64 | 1008.5 |
| 20260506044608 | 67 | 42 | 2.0 | 5.0 | 0.00 | 0.00 | 0.00 | 62 | 1009.6 |
| 20260506043032 | 68 | 51 | 1.0 | 6.0 | 0.00 | 0.00 | 0.00 | 62 | 1009.4 |
| 20260506041528 | 68 | 32 | 2.0 | 7.0 | 0.00 | 0.00 | 0.00 | 61 | 1009.4 |
| 20260506040028 | 68 | 116 | 1.0 | 4.0 | 0.00 | 0.00 | 0.00 | 60 | 1009.3 |
| 20260506034546 | 68 | 72 | 1.0 | 7.0 | 0.00 | 0.00 | 0.00 | 59 | 1009.6 |
| 20260506033023 | 67 | 63 | 0.0 | 0.0 | 0.00 | 0.00 | 0.00 | 59 | 1009.4 |
| 20260506031523 | 68 | 64 | 2.0 | 5.0 | 0.00 | 0.00 | 0.00 | 58 | 1009.7 |
| 20260506030024 | 68 | 79 | 0.0 | 4.0 | 0.00 | 0.00 | 0.00 | 58 | 1010.0 |
| 20260506024522 | 68 | 30 | 0.0 | 6.0 | 0.00 | 0.00 | 0.00 | 57 | 1010.0 |
| 20260506023123 | 68 | 61 | 2.0 | 6.0 | 0.00 | 0.00 | 0.00 | 57 | 1009.7 |
| 20260506021520 | 68 | 68 | 1.0 | 4.0 | 0.00 | 0.00 | 0.00 | 57 | 1009.7 |
| 20260506020019 | 68 | 77 | 0.0 | 1.0 | 0.00 | 0.00 | 0.00 | 57 | 1009.4 |
| 20260506014526 | 68 | 72 | 0.0 | 2.0 | 0.00 | 0.00 | 0.00 | 56 | 1009.6 |
| 20260506013018 | 68 | 87 | 1.0 | 4.0 | 0.00 | 0.00 | 0.00 | 55 | 1009.5 |
| 20260506011518 | 68 | 61 | 1.0 | 4.0 | 0.00 | 0.00 | 0.00 | 56 | 1009.1 |
| 20260506010017 | 67 | 93 | 0.0 | 2.0 | 0.00 | 0.00 | 0.00 | 56 | 1009.0 |
| 20260506004531 | 68 | 70 | 0.0 | 1.0 | 0.00 | 0.00 | 0.00 | 54 | 1008.9 |
| 20260506003029 | 69 | 25 | 0.0 | 5.0 | 0.00 | 0.00 | 0.00 | 52 | 1008.8 |
| 20260506001515 | 70 | 72 | 0.0 | 4.0 | 0.00 | 0.00 | 0.00 | 50 | 1008.9 |
| 20260506000015 | 71 | 53 | 1.0 | 6.0 | 0.00 | 0.00 | 0.00 | 48 | 1009.4 |
| 20260505234525 | 72 | 56 | 1.0 | 8.0 | 0.00 | 0.00 | 0.00 | 47 | 1009.4 |
| 20260505233013 | 73 | 67 | 6.0 | 13.0 | 0.00 | 0.00 | 0.00 | 45 | 1009.4 |
| 20260505231516 | 73 | 41 | 4.0 | 16.0 | 0.00 | 0.00 | 0.00 | 46 | 1009.3 |
| 20260505230013 | 74 | 73 | 3.0 | 10.0 | 0.00 | 0.00 | 0.00 | 45 | 1009.1 |
| 20260505224512 | 74 | 30 | 6.0 | 17.0 | 0.00 | 0.00 | 0.00 | 43 | 1008.9 |
| 20260505223009 | 75 | 28 | 7.0 | 14.0 | 0.00 | 0.00 | 0.00 | 45 | 1008.9 |
| 20260505221512 | 75 | 51 | 3.0 | 11.0 | 0.00 | 0.00 | 0.00 | 47 | 1008.8 |
| 20260505220016 | 75 | 20 | 1.0 | 5.0 | 0.00 | 0.00 | 0.00 | 52 | 1009.0 |
| 20260505214504 | 74 | 26 | 2.0 | 9.0 | 0.00 | 0.00 | 0.00 | 50 | 1009.2 |
| 20260505213002 | 75 | 59 | 3.0 | 10.0 | 0.00 | 0.00 | 0.00 | 48 | 1009.3 |
| 20260505211502 | 75 | 45 | 5.0 | 14.0 | 0.00 | 0.00 | 0.00 | 49 | 1009.5 |
| 20260505210100 | 76 | 44 | 3.0 | 10.0 | 0.00 | 0.00 | 0.00 | 49 | 1009.4 |
| 20260505204600 | 76 | 25 | 4.0 | 9.0 | 0.00 | 0.00 | 0.00 | 47 | 1009.5 |
| 20260505203055 | 76 | 27 | 4.0 | 9.0 | 0.00 | 0.00 | 0.00 | 47 | 1009.9 |
| 20260505201551 | 77 | 53 | 4.0 | 9.0 | 0.00 | 0.00 | 0.00 | 45 | 1010.2 |
| 20260505200048 | 77 | 34 | 1.0 | 9.0 | 0.00 | 0.00 | 0.00 | 50 | 1010.4 |
| 20260505194546 | 76 | 15 | 2.0 | 8.0 | 0.00 | 0.00 | 0.00 | 53 | 1010.6 |
| 20260505193045 | 75 | 80 | 4.0 | 11.0 | 0.00 | 0.00 | 0.00 | 52 | 1010.8 |
| 20260505191550 | 74 | 234 | 1.0 | 4.0 | 0.00 | 0.00 | 0.00 | 57 | 1010.9 |
| 20260505190037 | 73 | 272 | 0.0 | 3.0 | 0.00 | 0.00 | 0.00 | 58 | 1011.3 |
| 20260505184532 | 72 | 11 | 2.0 | 10.0 | 0.00 | 0.00 | 0.00 | 56 | 1011.5 |